BTK7041 WIHH-WAHQ

Flight info

Callsign BTK7041
Flight time 0h 49m
Altitude 31000
Route CA T3 ANY W17N PURWO
Aircraft B738/M-SDE2E3FGHIRWY/LB1

Departure

Time 2026-04-30 05:06
Airport Halim Perdanakusuma International Airport (WIHH)

Arrival

Time 2026-04-30 05:56
Airport Adisoemarmo International Airport (WAHQ)
Time Latitude Longitude Altitude Speed Heading
2026-04-30 04:15 -6.26616 106.88605 94 ft 0 kts 336°
2026-04-30 04:52 -6.26634 106.88615 93 ft 4 kts 318°
2026-04-30 04:52 -6.26649 106.88635 95 ft 4 kts 282°
2026-04-30 04:52 -6.26648 106.88661 94 ft 4 kts 249°
2026-04-30 04:52 -6.26646 106.88667 94 ft 2 kts 245°
2026-04-30 04:58 -6.26650 106.88659 94 ft 4 kts 245°
2026-04-30 04:59 -6.26671 106.88614 96 ft 10 kts 245°
2026-04-30 04:59 -6.26703 106.88546 95 ft 11 kts 245°
2026-04-30 04:59 -6.26727 106.88494 94 ft 7 kts 234°
2026-04-30 04:59 -6.26775 106.88486 96 ft 8 kts 161°
2026-04-30 05:00 -6.26832 106.88512 94 ft 10 kts 155°
2026-04-30 05:00 -6.26906 106.88530 93 ft 12 kts 197°
2026-04-30 05:00 -6.26961 106.88461 92 ft 14 kts 245°
2026-04-30 05:00 -6.27002 106.88371 91 ft 15 kts 245°
2026-04-30 05:01 -6.27044 106.88279 92 ft 14 kts 245°
2026-04-30 05:01 -6.27085 106.88193 93 ft 13 kts 245°
2026-04-30 05:01 -6.27122 106.88111 93 ft 13 kts 245°
2026-04-30 05:01 -6.27159 106.88031 94 ft 13 kts 245°
2026-04-30 05:02 -6.27155 106.87948 95 ft 12 kts 301°
2026-04-30 05:02 -6.27191 106.87896 95 ft 11 kts 168°
2026-04-30 05:02 -6.27210 106.87937 95 ft 6 kts 62°
2026-04-30 05:02 -6.27188 106.87970 95 ft 0 kts 65°
2026-04-30 05:05 -6.27186 106.87974 94 ft 5 kts 65°
2026-04-30 05:06 -6.26751 106.88918 98 ft 144 kts 66°
2026-04-30 05:06 -6.26257 106.89922 479 ft 172 kts 66°
2026-04-30 05:06 -6.25768 106.91018 1467 ft 170 kts 70°
2026-04-30 05:06 -6.25768 106.92196 2242 ft 184 kts 110°
2026-04-30 05:07 -6.26545 106.93340 2722 ft 206 kts 126°
2026-04-30 05:07 -6.27408 106.94546 3148 ft 225 kts 121°
2026-04-30 05:07 -6.28265 106.95938 3490 ft 246 kts 119°
2026-04-30 05:07 -6.29155 106.97480 3941 ft 258 kts 118°
2026-04-30 05:08 -6.30054 106.99097 4515 ft 266 kts 117°
2026-04-30 05:08 -6.30934 107.00723 5619 ft 265 kts 117°
2026-04-30 05:08 -6.31810 107.02362 6513 ft 269 kts 116°
2026-04-30 05:08 -6.32699 107.04034 7320 ft 273 kts 116°
2026-04-30 05:09 -6.33661 107.05700 8116 ft 280 kts 127°
2026-04-30 05:09 -6.35168 107.06977 8905 ft 289 kts 148°
2026-04-30 05:09 -6.36978 107.07903 9740 ft 295 kts 151°
2026-04-30 05:09 -6.38834 107.08822 10385 ft 305 kts 151°
2026-04-30 05:10 -6.40713 107.09912 10552 ft 328 kts 137°
2026-04-30 05:10 -6.42128 107.11783 10898 ft 339 kts 114°
2026-04-30 05:10 -6.43108 107.13929 11499 ft 345 kts 112°
2026-04-30 05:10 -6.44077 107.16183 12198 ft 349 kts 111°
2026-04-30 05:11 -6.45025 107.18408 12882 ft 353 kts 111°
2026-04-30 05:11 -6.46002 107.20686 13558 ft 357 kts 111°
2026-04-30 05:11 -6.47013 107.23020 14172 ft 362 kts 111°
2026-04-30 05:11 -6.48028 107.25346 14790 ft 365 kts 112°
2026-04-30 05:12 -6.49056 107.27689 15411 ft 368 kts 112°
2026-04-30 05:12 -6.50094 107.30051 16014 ft 371 kts 112°
2026-04-30 05:12 -6.51128 107.32404 16598 ft 375 kts 112°
2026-04-30 05:12 -6.52204 107.34848 17182 ft 379 kts 112°
2026-04-30 05:13 -6.53259 107.37247 17758 ft 382 kts 112°
2026-04-30 05:13 -6.54337 107.39698 18303 ft 386 kts 112°
2026-04-30 05:13 -6.55426 107.42174 18821 ft 388 kts 112°
2026-04-30 05:13 -6.56496 107.44666 19341 ft 390 kts 108°
2026-04-30 05:14 -6.57086 107.47315 19843 ft 389 kts 96°
2026-04-30 05:14 -6.57402 107.50033 20340 ft 392 kts 95°
2026-04-30 05:14 -6.57688 107.52770 20800 ft 396 kts 95°
2026-04-30 05:14 -6.57978 107.55531 21277 ft 398 kts 95°
2026-04-30 05:15 -6.58282 107.58303 21773 ft 400 kts 95°
2026-04-30 05:15 -6.58600 107.61094 22205 ft 403 kts 96°
2026-04-30 05:15 -6.58927 107.63902 22663 ft 406 kts 96°
2026-04-30 05:15 -6.59262 107.66727 23085 ft 408 kts 96°
2026-04-30 05:16 -6.59601 107.69569 23522 ft 410 kts 96°
2026-04-30 05:16 -6.59943 107.72434 23825 ft 415 kts 96°
2026-04-30 05:16 -6.60287 107.75312 24250 ft 414 kts 96°
2026-04-30 05:16 -6.60630 107.78194 24615 ft 417 kts 96°
2026-04-30 05:17 -6.60977 107.81109 24878 ft 421 kts 96°
2026-04-30 05:17 -6.61325 107.84035 25299 ft 421 kts 96°
2026-04-30 05:17 -6.61674 107.86969 25618 ft 424 kts 96°
2026-04-30 05:17 -6.62026 107.89929 25896 ft 428 kts 96°
2026-04-30 05:18 -6.62379 107.92899 26292 ft 428 kts 96°
2026-04-30 05:18 -6.62732 107.95880 26593 ft 431 kts 96°
2026-04-30 05:18 -6.63088 107.98886 26838 ft 435 kts 96°
2026-04-30 05:18 -6.63445 108.01907 27212 ft 435 kts 96°
2026-04-30 05:19 -6.63802 108.04942 27522 ft 438 kts 96°
2026-04-30 05:19 -6.64162 108.07991 27801 ft 440 kts 96°
2026-04-30 05:19 -6.64522 108.11050 28121 ft 442 kts 96°
2026-04-30 05:19 -6.64885 108.14128 28388 ft 444 kts 96°
2026-04-30 05:20 -6.65249 108.17222 28669 ft 446 kts 96°
2026-04-30 05:20 -6.65615 108.20328 29003 ft 447 kts 96°
2026-04-30 05:20 -6.65981 108.23441 29293 ft 449 kts 96°
2026-04-30 05:20 -6.66347 108.26554 29676 ft 448 kts 96°
2026-04-30 05:21 -6.66713 108.29659 30112 ft 446 kts 96°
2026-04-30 05:21 -6.67077 108.32757 30420 ft 446 kts 96°
2026-04-30 05:21 -6.67440 108.35854 30743 ft 446 kts 96°
2026-04-30 05:21 -6.67803 108.38943 30889 ft 444 kts 96°
2026-04-30 05:22 -6.68526 108.45118 30899 ft 446 kts 96°
2026-04-30 05:22 -6.69252 108.51314 30909 ft 447 kts 96°
2026-04-30 05:23 -6.69990 108.57524 30902 ft 448 kts 97°
2026-04-30 05:23 -6.70912 108.63683 30902 ft 448 kts 98°
2026-04-30 05:24 -6.71908 108.69876 30894 ft 448 kts 98°
2026-04-30 05:24 -6.72886 108.76070 30895 ft 448 kts 98°
2026-04-30 05:25 -6.73845 108.82266 30895 ft 448 kts 98°
2026-04-30 05:25 -6.74795 108.88459 30891 ft 448 kts 98°
2026-04-30 05:26 -6.75743 108.94644 30890 ft 447 kts 98°
2026-04-30 05:26 -6.76692 109.00837 30890 ft 447 kts 98°
2026-04-30 05:27 -6.77638 109.07018 30891 ft 447 kts 98°
2026-04-30 05:27 -6.78584 109.13200 30888 ft 447 kts 98°
2026-04-30 05:28 -6.79528 109.19379 30888 ft 447 kts 98°
2026-04-30 05:28 -6.80472 109.25558 30887 ft 447 kts 98°
2026-04-30 05:29 -6.81414 109.31732 30881 ft 446 kts 98°
2026-04-30 05:29 -6.82356 109.37906 30887 ft 447 kts 98°
2026-04-30 05:30 -6.83297 109.44088 30881 ft 447 kts 98°
2026-04-30 05:30 -6.84236 109.50256 30872 ft 443 kts 98°
2026-04-30 05:31 -6.85154 109.56294 30880 ft 438 kts 98°
2026-04-30 05:31 -6.85929 109.61393 30605 ft 444 kts 98°
2026-04-30 05:32 -6.86543 109.65440 30063 ft 438 kts 98°
2026-04-30 05:32 -6.87002 109.68459 29559 ft 434 kts 98°
2026-04-30 05:32 -6.87456 109.71451 29053 ft 430 kts 98°
2026-04-30 05:32 -6.87759 109.73450 28720 ft 427 kts 98°
2026-04-30 05:33 -6.88205 109.76391 28228 ft 423 kts 98°
2026-04-30 05:33 -6.88641 109.79269 27755 ft 419 kts 98°
2026-04-30 05:33 -6.89077 109.82150 27287 ft 415 kts 98°
2026-04-30 05:33 -6.89516 109.85049 26816 ft 412 kts 98°
2026-04-30 05:34 -6.89945 109.87883 26353 ft 408 kts 98°
2026-04-30 05:34 -6.90083 109.88797 26204 ft 407 kts 98°
2026-04-30 05:34 -6.90173 109.89393 26104 ft 406 kts 98°
2026-04-30 05:34 -6.90503 109.91573 25751 ft 404 kts 98°
2026-04-30 05:35 -6.90925 109.94361 25288 ft 402 kts 98°
2026-04-30 05:35 -6.91343 109.97131 24818 ft 399 kts 98°
2026-04-30 05:35 -6.91759 109.99884 24360 ft 397 kts 98°
2026-04-30 05:35 -6.92174 110.02628 23902 ft 395 kts 98°
2026-04-30 05:36 -6.92586 110.05359 23433 ft 394 kts 98°
2026-04-30 05:36 -6.92997 110.08084 22816 ft 394 kts 98°
2026-04-30 05:36 -6.93406 110.10793 22340 ft 390 kts 98°
2026-04-30 05:36 -6.93812 110.13487 21859 ft 387 kts 98°
2026-04-30 05:37 -6.94213 110.16150 21406 ft 384 kts 98°
2026-04-30 05:37 -6.94611 110.18791 20963 ft 380 kts 98°
2026-04-30 05:37 -6.95006 110.21413 20522 ft 377 kts 98°
2026-04-30 05:37 -6.95397 110.24010 20086 ft 374 kts 98°
2026-04-30 05:38 -6.95785 110.26587 19655 ft 372 kts 98°
2026-04-30 05:38 -6.96170 110.29151 19215 ft 369 kts 98°
2026-04-30 05:38 -6.96554 110.31702 18779 ft 368 kts 98°
2026-04-30 05:38 -6.96936 110.34240 18349 ft 366 kts 98°
2026-04-30 05:39 -6.97390 110.36752 17870 ft 365 kts 104°
2026-04-30 05:39 -6.98219 110.39152 17427 ft 362 kts 113°
2026-04-30 05:39 -6.99417 110.41369 16985 ft 359 kts 120°
2026-04-30 05:39 -7.00706 110.43510 16566 ft 356 kts 121°
2026-04-30 05:40 -7.02000 110.45628 16148 ft 354 kts 121°
2026-04-30 05:40 -7.03281 110.47731 15732 ft 351 kts 120°
2026-04-30 05:40 -7.04547 110.49822 15327 ft 349 kts 120°
2026-04-30 05:40 -7.05799 110.51903 14919 ft 347 kts 120°
2026-04-30 05:41 -7.07041 110.53976 14510 ft 345 kts 120°
2026-04-30 05:41 -7.08258 110.56011 14105 ft 343 kts 120°
2026-04-30 05:41 -7.09483 110.58063 13690 ft 342 kts 120°
2026-04-30 05:41 -7.10709 110.60119 13219 ft 341 kts 120°
2026-04-30 05:42 -7.11926 110.62159 12796 ft 339 kts 120°
2026-04-30 05:42 -7.13137 110.64190 12386 ft 336 kts 120°
2026-04-30 05:42 -7.14337 110.66201 11995 ft 334 kts 120°
2026-04-30 05:42 -7.15526 110.68196 11589 ft 331 kts 120°
2026-04-30 05:43 -7.16707 110.70176 11194 ft 329 kts 120°
2026-04-30 05:43 -7.17883 110.72148 10807 ft 327 kts 121°
2026-04-30 05:43 -7.19349 110.73867 10444 ft 325 kts 142°
2026-04-30 05:43 -7.21322 110.74890 10312 ft 316 kts 161°
2026-04-30 05:44 -7.23466 110.75198 10220 ft 307 kts 178°
2026-04-30 05:44 -7.25565 110.75181 10117 ft 297 kts 180°
2026-04-30 05:44 -7.27601 110.75124 9998 ft 289 kts 180°
2026-04-30 05:44 -7.29593 110.75067 9752 ft 286 kts 180°
2026-04-30 05:45 -7.31580 110.75016 9464 ft 284 kts 180°
2026-04-30 05:45 -7.33551 110.74972 9182 ft 283 kts 179°
2026-04-30 05:45 -7.35517 110.74933 8894 ft 283 kts 180°
2026-04-30 05:45 -7.37483 110.74894 8611 ft 283 kts 180°
2026-04-30 05:46 -7.39453 110.74858 8298 ft 283 kts 180°
2026-04-30 05:46 -7.41392 110.74824 8004 ft 282 kts 180°
2026-04-30 05:46 -7.43349 110.74791 7718 ft 281 kts 180°
2026-04-30 05:46 -7.45298 110.74758 7429 ft 280 kts 180°
2026-04-30 05:47 -7.47241 110.74768 7114 ft 279 kts 171°
2026-04-30 05:47 -7.49032 110.75453 6853 ft 274 kts 143°
2026-04-30 05:47 -7.50290 110.76860 6538 ft 273 kts 116°
2026-04-30 05:47 -7.50808 110.78668 6251 ft 268 kts 94°
2026-04-30 05:48 -7.50777 110.80542 5876 ft 267 kts 94°
2026-04-30 05:48 -7.51043 110.82387 5575 ft 264 kts 101°
2026-04-30 05:48 -7.51394 110.84188 5289 ft 261 kts 101°
2026-04-30 05:48 -7.51725 110.85979 5042 ft 260 kts 100°
2026-04-30 05:49 -7.52030 110.87785 5009 ft 260 kts 99°
2026-04-30 05:49 -7.52309 110.89548 4980 ft 248 kts 99°
2026-04-30 05:49 -7.52568 110.91216 4960 ft 233 kts 99°
2026-04-30 05:49 -7.52808 110.92783 4964 ft 219 kts 99°
2026-04-30 05:50 -7.52766 110.94275 4956 ft 213 kts 71°
2026-04-30 05:50 -7.51942 110.95471 4845 ft 206 kts 38°
2026-04-30 05:50 -7.50671 110.95996 4698 ft 193 kts
2026-04-30 05:50 -7.49392 110.95820 4616 ft 182 kts 336°
2026-04-30 05:51 -7.48421 110.95072 4428 ft 176 kts 301°
2026-04-30 05:51 -7.48200 110.93896 4166 ft 172 kts 268°
2026-04-30 05:51 -7.48211 110.92725 3981 ft 164 kts 267°
2026-04-30 05:51 -7.48304 110.91589 3725 ft 161 kts 264°
2026-04-30 05:52 -7.48423 110.90470 3445 ft 160 kts 261°
2026-04-30 05:52 -7.48612 110.89369 3173 ft 159 kts 258°
2026-04-30 05:52 -7.48838 110.88285 2909 ft 157 kts 257°
2026-04-30 05:52 -7.49082 110.87156 2411 ft 172 kts 257°
2026-04-30 05:53 -7.49344 110.85976 2151 ft 175 kts 257°
2026-04-30 05:53 -7.49607 110.84783 1925 ft 174 kts 257°
2026-04-30 05:53 -7.49856 110.83644 1704 ft 159 kts 257°
2026-04-30 05:53 -7.50088 110.82596 1527 ft 150 kts 257°
2026-04-30 05:54 -7.50311 110.81578 1328 ft 148 kts 257°
2026-04-30 05:54 -7.50536 110.80571 1151 ft 148 kts 256°
2026-04-30 05:54 -7.50757 110.79562 958 ft 146 kts 256°
2026-04-30 05:54 -7.50978 110.78559 747 ft 148 kts 256°
2026-04-30 05:55 -7.51210 110.77539 556 ft 150 kts 255°
2026-04-30 05:55 -7.51434 110.76521 443 ft 144 kts 257°
2026-04-30 05:55 -7.51631 110.75618 423 ft 120 kts 259°
2026-04-30 05:55 -7.51765 110.75005 427 ft 57 kts 257°
2026-04-30 05:56 -7.51809 110.74814 427 ft 13 kts 257°
2026-04-30 05:56 -7.51835 110.74711 422 ft 19 kts 247°
2026-04-30 05:56 -7.51886 110.74591 420 ft 11 kts 288°
2026-04-30 05:56 -7.51830 110.74618 424 ft 15 kts 84°
2026-04-30 05:57 -7.51823 110.74744 427 ft 21 kts 75°
2026-04-30 05:57 -7.51783 110.74913 427 ft 27 kts 66°
2026-04-30 05:57 -7.51642 110.74931 417 ft 23 kts 348°
2026-04-30 05:57 -7.51524 110.74921 424 ft 13 kts 40°
2026-04-30 05:58 -7.51499 110.74952 415 ft 4 kts
2026-04-30 05:58 -7.51458 110.74945 428 ft 8 kts 347°
2026-04-30 05:58 -7.51424 110.74936 428 ft 4 kts 348°
2026-04-30 05:58 -7.51422 110.74935 428 ft 0 kts 348°